User: anonymous   Login
Location: Homewood
(41.1836°S, 175.9581°E)
Time: 05:13:23
(UTC+00:00)
Language:

Cosmos 1470 Rocket - Orbit

View from above orbital plane
View from above orbital plane
View from above satellite
View from above satellite

Ground track
Ground track

The orbit data is extracted from the following two-line orbital elements,

1 14148U 83061B   24174.59753183  .00000583  00000-0  66092-4 0  9998
2 14148  82.5185  28.6406 0021602 159.8054 200.4021 14.84501602193618
Epoch (UTC): 22 June 2024 14:20:26
Eccentricity: 0.0021602
inclination: 82.5185°
perigee height: 600 km
apogee height: 630 km
right ascension of ascending node: 28.6406°
argument of perigee: 159.8054°
revolutions per day: 14.84501602
mean anomaly at epoch: 200.4021°
orbit number at epoch: 19361

The dashed part of the orbit path shows where the satellite is in the earth's shadow,  

DLR